This is the latest recevied weather packets stored in our database for station/object VK6DUG. If no packets are shown the sender has not sent any weather packets the latest 10 day(s).
| Time | Temp. | Humidity | Pressure | Rain* | Wind** | Luminosity | Snow |
|---|---|---|---|---|---|---|---|
| 1777523430 | 18.89° C | 79% | 1019.6 hPa | 0 mm | - | 325 W/m² | - |
| 1777522828 | 17.78° C | 82% | 1019.8 hPa | 0 mm | - | 342 W/m² | - |
| 1777522226 | 17.78° C | 84% | 1019.9 hPa | 0 mm | - | 272 W/m² | - |
| 1777521622 | 17.78° C | 84% | 1020 hPa | 0 mm | - | 241 W/m² | - |
| 1777521019 | 17.78° C | 83% | 1020.1 hPa | 0 mm | - | 188 W/m² | - |
| 1777520417 | 18.33° C | 83% | 1020.1 hPa | 0 mm | - | 150 W/m² | - |
| 1777519834 | 18.33° C | 80% | 1020 hPa | 0 mm | - | 90 W/m² | - |
| 1777519230 | 18.89° C | 79% | 1020.1 hPa | 0 mm | - | 88 W/m² | - |
| 1777518627 | 18.89° C | 79% | 1020 hPa | 0 mm | - | 143 W/m² | - |
| 1777518023 | 18.89° C | 79% | 1020 hPa | 0 mm | - | 245 W/m² | - |
| 1777517420 | 18.89° C | 78% | 1020.1 hPa | 0 mm | - | 175 W/m² | - |
| 1777516817 | 18.89° C | 78% | 1020 hPa | 0 mm | - | 281 W/m² | - |
| 1777516234 | 18.89° C | 79% | 1020 hPa | 0 mm | - | 357 W/m² | - |
| 1777515630 | 18.89° C | 79% | 1019.9 hPa | 0 mm | - | 310 W/m² | - |
| 1777515028 | 18.89° C | 79% | 1020 hPa | 0 mm | - | 373 W/m² | - |
| 1777514426 | 18.33° C | 85% | 1020.1 hPa | 0 mm | - | 365 W/m² | - |
| 1777513822 | 17.78° C | 91% | 1020.1 hPa | 0 mm | - | 267 W/m² | - |
| 1777513220 | 17.22° C | 95% | 1020.2 hPa | 0 mm | - | 224 W/m² | - |
| 1777512618 | 16.11° C | 96% | 1020.2 hPa | 0 mm | - | 185 W/m² | - |
| 1777512034 | 16.11° C | 97% | 1020.3 hPa | 0 mm | - | 152 W/m² | - |
| 1777511432 | 16.11° C | 97% | 1020.3 hPa | 0 mm | - | 129 W/m² | - |
| 1777510828 | 15.56° C | 97% | 1020.2 hPa | 0 mm | - | 123 W/m² | - |
| 1777510224 | 15.56° C | 97% | 1020.2 hPa | 0 mm | - | 115 W/m² | - |
| 1777509621 | 15.56° C | 98% | 1020.3 hPa | 0 mm | - | 107 W/m² | - |
| 1777509018 | 14.44° C | 98% | 1020 hPa | 0 mm | - | 100 W/m² | - |
* Rain latest hour (hover to see other rain measurements)
** Current wind speed in m/s (hover to see current wind gust speed)